Abilene, TX

11:32 AM CST on February 08, 2016 (GMT -0600)
Abilene Regional

Weather History for KABI - October, 2013

Change the Weather History Date:

Saturday, October 12, 2013

  Actual Average Record
Temperature  
Mean Temperature 75 °F 67 °F  
Max Temperature 87 °F 79 °F 99 °F (1979)
Min Temperature 62 °F 56 °F 33 °F (1977)
Degree Days  
Heating Degree Days 0 2  
Month to date heating degree days 6 20  
Since 1 July heating degree days 6 31  
Cooling Degree Days 10 4  
Month to date cooling degree days 102 64  
Year to date cooling degree days 2671 2335  
Growing Degree Days 25 (Base 50)    
Moisture  
Dew Point 47 °F    
Average Humidity 48    
Maximum Humidity 78    
Minimum Humidity 18    
Precipitation  
Precipitation 0.00 in 0.10 in 3.72 in (1981)
Month to date precipitation 0.40 1.10  
Year to date precipitation 19.91 20.30  
Sea Level Pressure  
Sea Level Pressure 29.95 in    
Wind  
Wind Speed 6 mph (North)    
Max Wind Speed 13 mph    
Max Gust Speed 16 mph    
Visibility 10 miles    
Events      
T = Trace of Precipitation, MM = Missing Value Source: NWS Daily Summary

Daily Weather History Graph

Daily Weather History Graph

Search for Another Location

Airport or City:

Trip Planner

Search our weather history database for the weather conditions in past years. The results will help you decide how hot, cold, wet, or windy it might be!

Date:

Astronomy

Oct. 12, 2013 Rise Set
Actual Time 7:40 AM CDT 7:09 PM CDT
Civil Twilight 7:15 AM CDT 7:33 PM CDT
Nautical Twilight 6:47 AM CDT 8:02 PM CDT
Astronomical Twilight 6:18 AM CDT 8:30 PM CDT
Moon 3:00 PM CDT (10/12) 1:06 AM CDT (10/12)
Length of Visible Light 12h 17m
Length of Day
11h 28m
First Quarter, 59% of the Moon is Illuminated
Oct 12
First Quarter
Oct 18
Full
Oct 26
Last Quarter
Nov 3
New
Nov 9
First Quarter

Hourly Weather History & Observations

Time (CDT) Temp. Dew Point Humidity Pressure Visibility Wind Dir Wind Speed Gust Speed Precip Events Conditions
12:52 AM 66.9 °F 54.0 °F 63% 29.85 in 10.0 mi SSE 5.8 mph - N/A   Clear
1:52 AM 68.0 °F 57.9 °F 70% 29.86 in 10.0 mi South 6.9 mph - N/A   Clear
2:52 AM 72.0 °F 62.1 °F 71% 29.86 in 10.0 mi SSW 9.2 mph - N/A   Clear
3:52 AM 68.0 °F 59.0 °F 73% 29.87 in 10.0 mi SW 3.5 mph - N/A   Clear
4:52 AM 66.0 °F 57.9 °F 75% 29.88 in 10.0 mi South 5.8 mph - N/A   Clear
5:52 AM 66.9 °F 59.0 °F 76% 29.90 in 10.0 mi SSE 9.2 mph - N/A   Clear
6:52 AM 66.9 °F 54.0 °F 63% 29.93 in 10.0 mi Calm Calm - N/A   Scattered Clouds
7:52 AM 63.0 °F 51.1 °F 65% 29.96 in 10.0 mi West 5.8 mph - N/A   Clear
8:52 AM 69.1 °F 48.9 °F 49% 29.99 in 10.0 mi Calm Calm - N/A   Clear
9:52 AM 72.0 °F 37.9 °F 29% 30.01 in 10.0 mi NNW 6.9 mph - N/A   Clear
10:52 AM 75.0 °F 37.9 °F 26% 30.01 in 10.0 mi NNW 5.8 mph - N/A   Clear
11:52 AM 79.0 °F 37.9 °F 23% 30.01 in 10.0 mi NNW 5.8 mph - N/A   Clear
12:52 PM 82.0 °F 36.0 °F 19% 30.00 in 10.0 mi NW 4.6 mph - N/A   Clear
1:52 PM 84.0 °F 37.0 °F 19% 29.97 in 10.0 mi North 4.6 mph - N/A   Clear
2:52 PM 86.0 °F 41.0 °F 20% 29.94 in 10.0 mi North 6.9 mph - N/A   Clear
3:52 PM 86.0 °F 44.1 °F 23% 29.94 in 10.0 mi North 9.2 mph - N/A   Clear
4:52 PM 86.0 °F 44.1 °F 23% 29.93 in 10.0 mi North 8.1 mph - N/A   Clear
5:52 PM 84.9 °F 46.0 °F 26% 29.94 in 10.0 mi North 10.4 mph - N/A   Clear
6:52 PM 81.0 °F 45.0 °F 28% 29.95 in 10.0 mi North 8.1 mph - N/A   Clear
7:52 PM 75.9 °F 45.0 °F 33% 29.98 in 10.0 mi NNE 4.6 mph - N/A   Clear
8:52 PM 73.0 °F 45.0 °F 37% 30.00 in 10.0 mi NE 5.8 mph - N/A   Clear
9:52 PM 71.1 °F 44.1 °F 38% 30.02 in 10.0 mi NE 4.6 mph - N/A   Clear
10:52 PM 70.0 °F 44.1 °F 39% 30.03 in 10.0 mi NE 3.5 mph - N/A   Clear
11:52 PM 66.9 °F 46.0 °F 47% 30.03 in 10.0 mi NNW 3.5 mph - N/A   Clear